Purchase, NY

9:34 AM EST on February 13, 2016 (GMT -0500)
Westchester County

Weather History for KHPN - October, 2011

Change the Weather History Date:

Sunday, October 23, 2011

  Actual Average Record
Temperature  
Mean Temperature 52 °F -  
Max Temperature 57 °F 57 °F 77 °F (1978)
Min Temperature 46 °F 41 °F 30 °F (1997)
Degree Days  
Heating Degree Days 14    
Growing Degree Days 2 (Base 50)    
Moisture  
Dew Point 40 °F    
Average Humidity 69    
Maximum Humidity 86    
Minimum Humidity 45    
Precipitation  
Precipitation 0.00 in - - ()
Sea Level Pressure  
Sea Level Pressure 30.12 in    
Wind  
Wind Speed 1 mph (NW)    
Max Wind Speed 7 mph    
Max Gust Speed -    
Visibility 10 miles    
Events      
Averages and records for this station are not official NWS values.
T = Trace of Precipitation, MM = Missing Value Source: NWS Daily Summary

Daily Weather History Graph

Daily Weather History Graph

Search for Another Location

Airport or City:

Trip Planner

Search our weather history database for the weather conditions in past years. The results will help you decide how hot, cold, wet, or windy it might be!

Date:

Astronomy

Oct. 23, 2011 Rise Set
Actual Time 7:14 AM EDT 6:02 PM EDT
Civil Twilight 6:46 AM EDT 6:30 PM EDT
Nautical Twilight 6:14 AM EDT 7:02 PM EDT
Astronomical Twilight 5:42 AM EDT 7:34 PM EDT
Moon 3:17 AM EDT (10/23) 3:53 PM EDT (10/23)
Length of Visible Light 11h 43m
Length of Day
10h 47m
Waning Crescent, 14% of the Moon is Illuminated
Oct 23
Waning Crescent
Oct 26
New
Nov 2
First Quarter
Nov 10
Full
Nov 18
Last Quarter

Hourly Weather History & Observations

Time (EDT) Temp. Dew Point Humidity Pressure Visibility Wind Dir Wind Speed Gust Speed Precip Events Conditions
12:56 AM 48.0 °F 39.9 °F 74% 30.10 in 10.0 mi Calm Calm - N/A   Mostly Cloudy
1:56 AM 48.0 °F 42.1 °F 80% 30.10 in 10.0 mi Calm Calm - N/A   Overcast
2:56 AM 48.0 °F 41.0 °F 77% 30.10 in 10.0 mi Calm Calm - N/A   Mostly Cloudy
3:56 AM 48.9 °F 41.0 °F 74% 30.09 in 10.0 mi NW 3.5 mph - N/A   Mostly Cloudy
4:56 AM 48.9 °F 41.0 °F 74% 30.09 in 10.0 mi NW 3.5 mph - N/A   Mostly Cloudy
5:56 AM 48.0 °F 41.0 °F 77% 30.10 in 10.0 mi NNW 4.6 mph - N/A   Overcast
6:56 AM 48.0 °F 42.1 °F 80% 30.11 in 10.0 mi Calm Calm - N/A   Overcast
7:56 AM 48.0 °F 42.1 °F 80% 30.12 in 10.0 mi Calm Calm - N/A   Mostly Cloudy
8:56 AM 50.0 °F 39.9 °F 68% 30.14 in 10.0 mi Calm Calm - N/A   Mostly Cloudy
9:56 AM 51.1 °F 39.9 °F 66% 30.16 in 10.0 mi WNW 4.6 mph - N/A   Mostly Cloudy
10:56 AM 52.0 °F 35.1 °F 53% 30.16 in 10.0 mi NW 3.5 mph - N/A   Mostly Cloudy
11:56 AM 55.0 °F 39.0 °F 55% 30.14 in 10.0 mi Variable 4.6 mph - N/A   Mostly Cloudy
12:56 PM 55.9 °F 37.0 °F 49% 30.12 in 10.0 mi North 6.9 mph - N/A   Scattered Clouds
1:56 PM 55.9 °F 36.0 °F 47% 30.11 in 10.0 mi NNW 3.5 mph - N/A   Scattered Clouds
2:56 PM 57.0 °F 37.0 °F 47% 30.09 in 10.0 mi Calm Calm - N/A   Scattered Clouds
3:56 PM 57.0 °F 36.0 °F 45% 30.09 in 10.0 mi Calm Calm - N/A   Clear
4:56 PM 54.0 °F 39.0 °F 57% 30.08 in 10.0 mi SSE 5.8 mph - N/A   Partly Cloudy
5:56 PM 52.0 °F 39.9 °F 63% 30.10 in 10.0 mi Calm Calm - N/A   Clear
6:56 PM 48.9 °F 41.0 °F 74% 30.11 in 10.0 mi Calm Calm - N/A   Mostly Cloudy
7:56 PM 46.9 °F 41.0 °F 80% 30.12 in 10.0 mi Calm Calm - N/A   Clear
8:56 PM 46.9 °F 41.0 °F 80% 30.13 in 10.0 mi Calm Calm - N/A   Clear
9:56 PM 46.9 °F 41.0 °F 80% 30.14 in 10.0 mi Calm Calm - N/A   Clear
10:56 PM 46.0 °F 42.1 °F 86% 30.14 in 10.0 mi Calm Calm - N/A   Clear
11:56 PM 46.9 °F 42.1 °F 83% 30.13 in 10.0 mi Calm Calm - N/A   Clear